Weather History for Cahokia, IL

Change the Weather History Date:

Tuesday, February 5, 2013

  Actual Average Record
Temperature  
Mean Temperature 42 °F -  
Max Temperature 57 °F 47 °F 66 °F (2008)
Min Temperature 28 °F 22 °F 6 °F (2007)
Degree Days  
Heating Degree Days 22    
Moisture  
Dew Point 28 °F    
Average Humidity 69    
Maximum Humidity 88    
Minimum Humidity 40    
Precipitation  
Precipitation 0.00 in - - ()
Sea Level Pressure  
Sea Level Pressure 29.99 in    
Wind  
Wind Speed 5 mph (West)    
Max Wind Speed 13 mph    
Max Gust Speed -    
Visibility 9 miles    
Events      
Averages and records for this station are not official NWS values.
T = Trace of Precipitation, MM = Missing Value Source: NWS Daily Summary

Daily Weather History Graph

Daily Weather History Graph

Search for Another Location

Airport:

Trip Planner

Search our weather history database for the weather conditions in past years. The results will help you decide how hot, cold, wet, or windy it might be!

Date:

Astronomy

Feb. 05, 2013 Rise Set
Actual Time 7:02 AM CST 5:27 PM CST
Civil Twilight 6:34 AM CST 5:55 PM CST
Nautical Twilight 6:02 AM CST 6:26 PM CST
Astronomical Twilight 5:31 AM CST 6:57 PM CST
Moon 2:42 AM CST (2/5) 12:46 PM CST (2/5)
Length of Visible Light 11h 20m
Length of Day
10h 25m
Waning Crescent, 26% of the Moon is Illuminated
Feb 5
Waning Crescent
Feb 10
New
Feb 17
First Quarter
Feb 25
Full
Mar 4
Last Quarter

Hourly Weather History & Observations

Time (CST) Temp. Windchill Dew Point Humidity Pressure Visibility Wind Dir Wind Speed Gust Speed Precip Events Conditions
12:53 AM 30.0 °F 24.1 °F 25.0 °F 82% 29.98 in 9.0 mi NNW 5.8 mph - N/A   Overcast
1:08 AM 30.2 °F 26.7 °F 24.8 °F 80% 29.97 in 9.0 mi NNW 3.5 mph - N/A   Overcast
1:53 AM 30.0 °F - 24.1 °F 79% 29.98 in 9.0 mi Calm Calm - N/A   Overcast
2:53 AM 30.0 °F - 24.1 °F 79% 29.97 in 8.0 mi Calm Calm - N/A   Overcast
3:53 AM 28.9 °F - 24.1 °F 82% 29.97 in 7.0 mi Calm Calm - N/A   Overcast
4:53 AM 28.0 °F - 25.0 °F 88% 29.98 in 6.0 mi Calm Calm - N/A   Overcast
5:23 AM 28.4 °F - 24.8 °F 86% 29.97 in 6.0 mi Calm Calm - N/A   Scattered Clouds
5:53 AM 28.0 °F 24.2 °F 25.0 °F 88% 29.98 in 5.0 mi SSE 3.5 mph - N/A   Clear
6:53 AM 28.0 °F 24.2 °F 25.0 °F 88% 29.96 in 6.0 mi SSE 3.5 mph - N/A   Scattered Clouds
7:53 AM 28.9 °F 23.9 °F 25.0 °F 85% 29.98 in 5.0 mi SSE 4.6 mph - N/A   Clear
8:53 AM 32.0 °F 26.4 °F 26.1 °F 79% 29.99 in 7.0 mi SSW 5.8 mph - N/A   Scattered Clouds
9:53 AM 34.0 °F - 27.0 °F 75% 29.97 in - North - - N/A   Clear
10:53 AM - - - N/A% 29.95 in 9.0 mi SSW 9.2 mph - N/A   Clear
11:53 AM 42.1 °F 37.7 °F 30.9 °F 65% 29.94 in 10.0 mi WSW 6.9 mph - N/A   Clear
12:53 PM 48.9 °F - 34.0 °F 56% 29.91 in 10.0 mi SW 8.1 mph - N/A   Clear
1:53 PM 54.0 °F - 33.1 °F 45% 29.91 in 10.0 mi West 9.2 mph - N/A   Clear
2:53 PM 57.0 °F - 33.1 °F 40% 29.91 in 10.0 mi West 11.5 mph - N/A   Clear
3:53 PM 55.9 °F - 32.0 °F 40% 29.93 in 10.0 mi WNW 12.7 mph - N/A   Clear
4:53 PM 53.1 °F - 32.0 °F 45% 29.95 in 10.0 mi NW 12.7 mph - N/A   Clear
5:53 PM 48.9 °F - 32.0 °F 52% 29.98 in 10.0 mi NW 12.7 mph - N/A   Clear
6:53 PM 46.0 °F 40.6 °F 32.0 °F 58% 30.02 in 10.0 mi NW 11.5 mph - N/A   Clear
7:53 PM 45.0 °F 41.8 °F 30.9 °F 58% 30.05 in 10.0 mi WNW 5.8 mph - N/A   Clear
8:53 PM 42.1 °F 37.7 °F 30.9 °F 65% 30.09 in 10.0 mi North 6.9 mph - N/A   Clear
9:53 PM 41.0 °F 33.9 °F 30.9 °F 67% 30.13 in 10.0 mi North 12.7 mph - N/A   Clear
10:53 PM 36.0 °F - 28.9 °F 76% 30.13 in 10.0 mi Calm Calm - N/A   Clear
11:53 PM 36.0 °F - 28.9 °F 76% 30.15 in 10.0 mi Calm Calm - N/A   Clear